Temp_Advection
nan nan nan nan nan nan nan nan nan nan nan nan nan nan nan nan nan nan nan nan nan nan nan nan nan nan nan nan nan nan nan nan nan nan nan nan nan nan nan nan nan nan nan nan
nan 0 0 0 0 0 0 -0 -0 0 0 -0 -0 -1 -0 -0 -0 -0 -0 -0 -0 -0 -0 -0 -0 -0 0 -0 -0 0 -0 -0 -0 -1 -0 -0 0 -0 -1 -1 -0 0 -0 nan
nan 0 0 0 0 0 0 -0 -0 0 1 -0 -0 -0 -0 0 -0 0 -0 -0 -0 -0 -0 -0 0 0 0 -0 -0 0 -0 -0 -0 -0 0 0 0 -0 -0 -1 -0 0 -1 nan
nan 0 0 0 0 0 0 0 -0 -0 0 -0 -0 0 0 0 0 0 -0 -0 -0 -0 -0 -0 -0 0 0 -0 0 -0 -0 0 0 -0 -0 -0 0 0 -0 0 -0 -0 -0 nan
nan 0 0 0 0 0 -0 -0 -0 -0 -0 -0 -0 0 -0 0 0 0 0 0 -0 -0 -0 0 -0 -0 -0 0 0 -0 -0 0 -0 -0 -1 -0 -0 -0 -0 -0 -0 -0 -1 nan
nan 0 0 0 -0 -0 -0 -0 -0 -0 0 0 0 -0 -0 0 0 -0 -0 -1 -1 0 0 0 0 0 0 -0 -0 -0 -0 -0 -0 0 -0 -0 -0 -0 -0 -0 -0 0 0 nan
nan 0 0 0 -0 -0 -0 -0 0 -0 0 0 -0 -0 0 0 0 0 0 -0 -0 -0 0 0 -1 -2 -2 -2 -1 -0 -1 -0 -0 0 -0 0 -1 -0 0 -0 -0 -0 -0 nan
nan 0 0 0 0 0 -0 -0 0 -1 -0 -0 0 -0 -0 1 -1 -0 0 0 0 -0 -1 -1 -1 -1 -0 -0 0 -0 -0 -1 -0 0 -0 -1 -0 -0 -0 -0 0 0 -0 nan
nan 0 0 0 0 -0 0 0 0 -0 -2 0 0 0 -1 -0 -0 -0 0 1 1 -1 -2 -0 1 -0 -0 0 -0 -1 -1 -1 -0 0 0 -0 -0 -0 -0 -1 0 0 -0 nan
nan 0 0 0 0 0 0 0 0 0 -0 0 0 -0 -0 -1 -1 0 0 0 -0 -1 -1 0 0 -0 0 0 0 0 -0 -0 -0 -0 -0 -1 -1 -0 -0 -0 -0 0 0 nan
nan 0 0 0 0 0 0 0 0 -0 -1 -0 0 0 -0 -0 -1 -1 0 -0 -0 -1 -0 -0 -0 0 -0 0 0 -0 -1 -1 -0 -0 0 -1 -1 -0 0 -0 -0 0 0 nan
nan 0 0 0 0 0 0 0 0 0 -0 -0 0 1 1 0 -0 -2 -1 -0 -0 -1 -1 -0 0 0 0 0 -0 0 -0 -1 -0 -1 -1 -1 -0 0 0 0 0 0 0 nan
nan 0 0 0 0 0 0 0 0 -0 -1 -0 0 0 0 0 0 0 -0 -0 -0 -0 -1 -1 -0 0 0 0 -0 -0 -0 -1 -0 0 -0 0 1 1 1 1 0 -0 0 nan
nan 0 0 0 0 0 0 0 0 0 -1 -0 0 0 0 0 0 0 0 -0 -0 -0 -0 -1 -0 -0 -0 0 -0 0 -0 0 0 0 0 0 0 0 1 0 0 0 0 nan
nan 0 0 0 0 0 0 0 0 0 -0 -1 0 0 0 0 0 0 0 1 0 0 -1 -0 -0 -0 -0 0 -0 -0 -0 0 -0 -1 -1 -0 -0 1 1 0 0 0 0 nan
nan 0 0 0 0 0 0 0 0 0 0 -1 -0 0 0 0 0 0 0 0 0 0 -0 -0 -0 -0 -0 -0 -0 -2 -1 -0 -0 0 0 0 0 0 0 0 0 0 0 nan
nan 0 0 0 0 0 0 0 0 0 0 -0 -1 -0 0 0 0 0 0 0 0 0 0 0 0 0 0 -0 -1 -1 -0 0 1 1 0 -0 0 0 0 0 0 0 0 nan
nan 0 0 0 0 0 0 0 0 0 0 -0 -1 -0 0 0 0 0 0 0 0 0 0 0 0 0 -0 -0 -1 -1 0 1 1 1 0 0 0 0 0 0 0 0 0 nan
nan 1 0 0 0 0 0 0 0 0 0 -0 -0 0 -0 0 0 0 0 0 -0 -0 0 0 0 0 -0 -0 -0 -0 0 0 1 0 0 1 0 0 0 0 0 0 0 nan
nan 1 0 0 0 0 0 0 0 0 0 -0 -0 -0 0 0 0 -0 0 -0 0 0 -0 0 0 -0 -1 -0 -0 -0 0 1 0 0 0 0 0 0 0 0 0 -0 0 nan
nan -0 0 0 0 0 0 0 -0 -0 0 0 -0 0 -0 0 -0 0 0 0 0 -0 0 0 -0 0 -0 -0 0 1 1 1 1 0 1 -0 0 0 0 0 0 0 0 nan
nan 0 -0 0 0 0 -0 0 0 0 0 0 0 0 0 0 -0 -0 0 -0 -0 -0 -0 -0 0 -0 0 0 0 0 0 -0 -0 -0 0 0 -0 -0 -0 0 0 0 0 nan
nan 0 0 -0 -0 0 0 0 0 0 0 0 0 0 0 0 0 -0 0 0 0 -0 0 0 0 0 0 0 -0 0 0 -0 -0 -0 -0 -0 -0 -0 -0 -0 -0 -0 -0 nan
nan -0 -0 0 0 -0 0 -0 -0 0 0 0 0 0 0 0 0 0 0 0 0 0 0 0 0 -0 0 0 -0 -0 0 -0 -0 -0 -0 -0 -0 -0 0 0 0 -0 -0 nan
nan -0 -0 -0 -0 0 0 0 0 0 0 0 -0 -0 -0 -0 0 -0 0 0 -0 0 -0 0 0 0 -0 0 0 0 0 0 -0 -0 -0 -0 -0 -0 -0 0 0 0 -0 nan
nan -0 -0 0 0 -0 0 0 0 0 0 0 -0 0 0 -0 0 0 -0 0 -0 -0 -0 0 -0 0 0 0 0 0 0 -0 -0 -0 -0 -0 -0 -0 -0 -0 -0 0 0 nan
nan nan nan nan nan nan nan nan nan nan nan nan nan nan nan nan nan nan nan nan nan nan nan nan nan nan nan nan nan nan nan nan nan nan nan nan nan nan nan nan nan nan nan nan
Wind_Speed
12 14 19 23 25 24 22 13 2 13 12 4 1 3 3 2 4 5 5 3 4 4 4 4 4 3 2 7 2 3 2 4 3 1 2 0 2 3 4 4 2 2 3 5
12 13 18 22 26 27 23 11 5 11 14 4 2 4 4 2 2 1 2 2 4 4 4 6 3 4 4 9 4 2 3 2 3 6 6 5 2 1 5 6 3 6 5 5
12 13 17 22 27 29 20 9 3 4 7 2 6 3 3 3 4 2 4 3 5 5 5 6 4 3 4 6 4 3 2 3 5 6 4 3 1 2 4 4 3 3 6 6
12 12 17 21 27 30 17 6 4 9 4 4 3 4 5 3 1 2 4 4 3 5 3 3 4 3 2 4 2 2 3 3 2 2 3 2 1 1 4 2 5 5 5 5
12 11 15 20 26 27 15 4 4 8 8 13 7 5 7 8 3 4 1 3 4 4 4 5 7 7 3 4 1 2 3 1 2 2 6 6 3 5 4 4 2 4 8 5
12 11 14 19 23 24 10 6 4 10 1 6 4 4 7 9 10 3 4 12 7 9 4 18 18 9 11 9 6 2 3 4 3 3 4 5 5 5 3 3 2 3 4 4
12 12 13 17 21 21 9 5 6 5 1 4 5 4 3 6 3 8 7 11 7 10 19 17 20 26 22 20 13 5 4 4 2 2 3 1 5 5 4 9 3 7 9 7
13 13 14 16 19 18 13 7 4 3 1 1 2 5 13 20 19 8 10 7 11 20 6 5 5 5 6 4 6 6 4 5 3 3 2 5 2 4 5 5 5 6 8 9
14 13 13 14 15 14 10 10 7 4 10 2 1 6 19 6 4 5 4 15 12 5 6 4 4 4 5 3 2 9 7 6 4 3 4 6 5 3 6 7 5 13 13 11
14 13 13 13 12 12 12 11 9 6 7 5 4 4 6 10 7 4 3 3 4 4 3 3 3 3 5 5 7 4 2 3 4 2 2 7 7 7 5 5 7 17 13 10
14 13 13 13 12 12 13 13 10 7 6 9 5 8 10 12 10 5 9 5 2 4 4 3 3 3 4 2 5 6 7 6 4 2 2 8 11 6 7 6 16 18 13 9
14 13 12 12 12 13 14 14 10 8 6 9 12 14 11 10 10 13 15 5 5 7 4 1 3 2 2 2 3 3 2 7 6 9 6 6 20 8 11 15 16 15 10 8
14 13 12 12 11 11 11 13 12 9 13 8 6 9 11 7 9 12 8 6 8 7 6 8 3 3 4 4 5 3 4 8 3 3 4 8 14 9 9 11 12 9 5 6
13 12 12 11 10 10 9 11 10 7 7 5 4 5 7 6 6 10 8 9 14 14 10 5 3 3 10 3 3 4 5 7 4 2 2 6 9 10 13 11 6 6 8 10
14 12 12 11 10 10 9 9 8 7 3 5 5 6 4 5 4 5 6 10 14 11 5 3 3 4 3 0 2 3 7 6 4 6 10 7 7 19 15 9 9 14 12 10
15 13 12 11 11 12 12 4 6 7 7 4 2 3 2 6 7 7 8 8 7 5 5 4 4 3 4 3 3 9 12 13 14 7 9 8 8 16 10 11 15 12 10 7
15 14 12 11 11 11 4 5 7 10 8 4 4 2 3 9 8 7 5 6 4 3 3 4 3 2 3 2 4 5 10 11 9 9 13 12 14 8 12 14 11 11 9 5
15 14 12 12 11 10 8 7 8 10 5 4 4 1 0 7 5 4 3 3 4 1 2 3 3 3 2 3 11 13 10 13 13 14 8 7 13 13 18 14 12 10 5 3
16 14 12 11 9 6 7 7 7 7 3 7 3 5 4 7 3 3 3 2 2 1 1 2 3 2 4 6 6 7 11 16 16 12 10 15 19 15 14 13 7 3 4 9
14 15 5 5 8 8 9 4 3 4 3 3 3 6 2 6 4 2 3 1 1 1 3 4 2 3 13 13 9 7 10 14 19 23 17 18 18 13 8 3 2 6 10 14
15 6 3 8 14 6 4 2 2 2 1 3 2 6 4 4 3 3 3 2 2 2 3 3 2 3 3 5 4 11 12 17 18 17 15 11 9 8 5 3 7 11 14 15
13 9 13 13 4 2 3 2 2 1 3 3 4 4 4 5 4 4 5 3 2 5 8 2 3 1 9 12 15 16 16 18 19 13 12 11 5 0 5 9 11 12 12 13
18 6 5 3 1 2 5 6 1 2 5 5 5 2 4 4 4 4 2 4 4 7 2 3 2 9 9 13 16 16 16 13 11 11 6 2 5 9 11 11 11 12 13 13
3 3 4 1 1 1 1 1 2 3 1 7 6 5 2 2 2 2 3 1 2 2 2 3 1 13 14 13 14 15 13 11 7 2 4 9 13 13 12 12 12 14 15 14
4 3 2 2 4 3 3 5 5 5 6 8 6 5 3 2 2 0 2 1 2 1 1 1 3 9 10 14 12 10 7 3 3 8 13 13 12 13 14 14 15 17 15 13
4 4 3 7 4 3 4 6 5 6 8 7 4 2 2 1 1 1 2 3 2 1 2 6 10 9 10 11 10 7 4 5 12 12 12 14 15 16 18 18 17 12 13 15
3 3 8 7 10 6 4 6 5 8 4 1 3 2 2 0 1 1 3 2 2 6 5 8 7 8 10 7 5 1 8 13 12 13 14 16 16 16 16 17 16 14 16 18
Wind_Direction
179 179 183 178 174 171 165 163 114 173 168 109 85 171 227 346 18 30 48 95 59 122 135 69 87 127 57 4 7 55 20 115 89 154 285 218 132 144 108 111 215 89 137 267
174 176 181 176 174 172 165 164 124 167 177 140 246 279 277 54 53 312 71 69 68 61 126 94 79 96 39 52 57 79 4 48 68 354 346 347 130 149 100 101 71 190 134 259
169 173 177 177 176 172 171 163 94 133 190 192 153 187 255 110 36 38 86 112 76 68 60 45 124 99 35 45 75 60 62 91 150 178 192 190 188 62 71 114 117 191 219 249
165 168 173 179 178 175 174 181 196 166 197 253 179 153 187 133 115 42 86 27 89 140 109 84 106 89 92 41 29 54 87 114 83 84 35 46 234 170 314 217 194 161 260 160
162 159 166 177 180 180 189 185 164 171 181 181 163 164 204 166 179 136 99 144 21 100 119 175 186 134 154 184 138 74 23 162 54 21 17 22 302 311 264 196 208 165 119 106
157 150 157 170 177 179 193 207 198 175 314 125 109 209 189 200 138 54 41 133 95 78 116 102 97 104 145 150 139 104 78 111 76 262 1 353 350 206 215 118 52 225 190 158
154 144 148 163 170 181 201 169 152 141 261 128 191 196 127 135 154 131 93 117 99 138 114 98 84 76 69 68 41 93 114 91 76 212 15 24 239 289 164 121 59 111 109 127
151 142 142 155 167 179 190 175 152 124 108 258 349 101 117 93 84 71 76 55 130 146 116 65 50 355 25 7 39 13 106 116 92 135 196 302 295 203 158 166 218 173 148 152
151 144 142 152 165 174 177 181 178 143 124 306 109 121 139 132 103 25 63 85 146 139 76 71 133 194 198 174 81 42 69 75 112 141 137 217 234 193 125 87 281 181 169 172
147 148 147 154 158 167 177 167 167 152 107 44 89 137 157 133 104 102 120 109 86 70 69 85 144 229 180 169 174 195 55 7 148 145 212 287 241 224 141 104 239 170 183 181
152 147 147 152 155 157 166 166 173 163 114 60 99 136 143 148 149 132 155 81 15 53 70 117 202 179 228 144 176 176 168 153 190 108 91 279 191 129 170 197 163 180 180 190
155 151 148 147 151 152 161 157 156 151 125 114 101 102 119 158 151 140 162 135 152 153 92 128 134 196 183 139 226 133 210 191 182 183 211 234 191 224 216 186 179 176 190 198
160 156 151 154 159 160 169 159 152 140 115 116 118 101 107 126 159 169 142 163 158 162 139 149 159 189 144 173 236 200 249 167 201 102 240 211 213 199 185 186 174 176 216 191
167 160 155 161 163 160 162 165 156 154 122 109 104 122 131 139 178 192 198 189 174 169 161 113 146 173 195 217 212 189 206 161 184 250 355 124 187 199 179 168 188 216 167 153
171 165 161 164 157 157 159 161 156 161 133 135 122 123 94 139 174 174 150 177 175 165 134 111 204 203 141 273 76 258 193 190 168 229 219 200 214 199 184 197 185 158 159 156
174 170 169 168 159 155 146 126 172 173 141 121 98 140 127 141 166 176 165 169 168 171 155 173 205 204 191 152 214 258 242 240 248 249 211 218 167 170 182 169 157 167 172 188
176 173 172 171 168 168 170 149 160 162 158 130 81 18 144 157 156 157 153 166 146 143 157 206 197 167 210 159 222 238 239 241 230 194 166 138 165 182 170 158 164 175 165 174
175 173 169 165 161 156 137 133 147 168 164 137 111 211 116 163 167 169 189 176 177 123 181 185 204 179 128 253 248 256 250 199 178 175 193 187 167 152 159 164 167 172 187 269
170 165 159 156 165 158 154 147 155 176 167 136 123 146 214 167 139 125 137 165 45 284 150 222 155 207 225 236 263 273 227 206 194 162 144 145 140 143 150 155 162 202 287 303
156 151 141 145 154 146 149 150 187 189 173 157 145 140 157 168 145 74 91 62 141 185 245 162 190 252 263 265 261 293 241 211 165 143 135 138 126 129 138 192 274 307 303 303
155 151 120 143 140 135 167 148 86 94 74 188 158 191 137 159 119 165 192 169 156 232 231 186 232 261 283 322 163 160 158 154 150 142 145 146 167 192 202 279 294 298 301 303
161 142 134 135 167 147 104 161 115 141 207 148 158 121 127 135 155 117 176 166 145 238 147 205 250 317 125 126 129 127 127 126 126 132 127 142 145 78 312 305 302 302 302 306
139 139 139 111 17 148 198 185 189 153 166 160 154 102 148 148 169 113 145 189 211 138 182 233 252 125 118 123 124 124 133 134 139 147 140 97 341 329 321 315 314 312 314 318
70 74 90 110 168 53 117 66 91 114 176 169 156 111 121 106 123 135 192 184 100 205 204 237 191 130 143 147 147 150 155 153 138 90 344 329 321 317 318 319 317 317 318 317
92 75 82 81 122 111 138 118 115 100 135 143 99 77 99 56 95 40 103 91 217 207 50 13 89 184 179 165 167 171 153 123 17 335 324 322 322 322 318 316 314 314 312 312
79 67 94 132 104 112 130 150 136 141 150 122 96 125 104 78 128 148 228 167 57 56 291 100 110 138 169 154 144 142 130 350 335 328 323 320 319 317 313 311 311 303 304 309
72 71 100 105 101 93 91 107 104 136 123 104 105 82 189 142 68 71 32 81 133 150 178 211 209 193 158 154 159 183 329 335 338 333 324 316 314 312 310 307 306 299 302 305
Height
1458 1461 1465 1468 1473 1478 1484 1487 1491 1491 1494 1499 1501 1505 1496 1492 1492 1492 1493 1494 1497 1499 1504 1513 1520 1524 1522 1521 1521 1525 1526 1536 1550 1539 1532 1531 1532 1537 1545 1571 1560 1571 1579 1570
1455 1459 1463 1466 1471 1476 1481 1485 1488 1491 1493 1505 1504 1498 1495 1493 1494 1494 1494 1497 1497 1498 1506 1520 1520 1523 1524 1522 1523 1527 1528 1540 1563 1554 1544 1535 1535 1535 1540 1550 1563 1564 1586 1569
1454 1457 1460 1464 1469 1474 1480 1483 1490 1491 1493 1494 1496 1498 1496 1497 1495 1495 1495 1497 1497 1501 1508 1511 1521 1524 1524 1523 1525 1527 1528 1536 1545 1558 1545 1541 1539 1539 1541 1548 1572 1564 1563 1551
1454 1457 1459 1463 1468 1473 1478 1479 1481 1482 1495 1493 1493 1495 1495 1497 1498 1496 1496 1499 1500 1504 1513 1515 1523 1524 1526 1526 1527 1527 1530 1542 1540 1541 1541 1538 1539 1541 1543 1544 1546 1558 1549 1549
1453 1455 1458 1462 1467 1472 1477 1477 1478 1481 1482 1486 1492 1494 1496 1496 1497 1497 1499 1501 1503 1504 1512 1514 1522 1521 1525 1528 1528 1529 1533 1546 1542 1542 1545 1547 1543 1542 1540 1540 1536 1540 1547 1551
1452 1454 1457 1461 1466 1471 1475 1475 1476 1477 1483 1486 1492 1492 1492 1493 1494 1498 1499 1502 1508 1513 1513 1511 1514 1516 1518 1522 1527 1533 1538 1548 1557 1559 1557 1553 1560 1540 1536 1537 1538 1538 1544 1546
1452 1454 1457 1461 1465 1470 1472 1472 1474 1476 1487 1485 1488 1485 1487 1490 1492 1497 1502 1503 1506 1514 1513 1515 1517 1520 1524 1525 1529 1530 1542 1552 1565 1569 1566 1573 1538 1529 1530 1537 1540 1539 1542 1545
1452 1454 1457 1461 1465 1469 1472 1472 1473 1474 1487 1484 1483 1485 1490 1492 1495 1500 1503 1504 1506 1511 1513 1525 1532 1541 1537 1538 1536 1534 1534 1550 1567 1576 1569 1550 1533 1530 1532 1533 1540 1539 1540 1543
1452 1455 1457 1461 1464 1468 1471 1472 1474 1475 1478 1486 1485 1486 1488 1495 1499 1505 1506 1508 1509 1511 1518 1532 1547 1548 1538 1540 1539 1539 1540 1544 1558 1570 1577 1573 1535 1527 1527 1529 1545 1533 1536 1539
1452 1455 1457 1461 1464 1467 1469 1471 1474 1476 1478 1483 1483 1486 1489 1491 1497 1505 1508 1509 1511 1513 1529 1550 1553 1542 1531 1543 1546 1553 1552 1560 1564 1580 1580 1551 1528 1525 1528 1547 1538 1528 1531 1533
1453 1456 1458 1461 1464 1467 1469 1472 1474 1476 1478 1484 1483 1485 1487 1490 1492 1502 1506 1512 1514 1519 1532 1543 1545 1544 1536 1535 1532 1539 1544 1555 1562 1566 1576 1554 1520 1525 1531 1523 1521 1523 1527 1529
1453 1456 1459 1462 1465 1468 1470 1472 1475 1476 1478 1485 1486 1486 1488 1490 1492 1495 1502 1506 1507 1510 1524 1533 1533 1535 1534 1539 1539 1526 1531 1527 1535 1534 1530 1515 1515 1514 1514 1516 1518 1523 1525 1526
1454 1458 1460 1463 1466 1469 1471 1472 1475 1477 1480 1487 1488 1490 1491 1492 1493 1495 1499 1504 1506 1508 1510 1519 1526 1534 1530 1536 1532 1521 1516 1515 1522 1523 1512 1512 1513 1513 1514 1516 1518 1521 1522 1524
1455 1459 1461 1464 1467 1470 1472 1473 1475 1478 1480 1484 1491 1491 1493 1493 1494 1495 1498 1499 1503 1506 1509 1513 1521 1528 1520 1526 1521 1520 1512 1512 1513 1516 1513 1512 1512 1512 1513 1516 1517 1519 1521 1523
1456 1459 1462 1465 1468 1470 1472 1474 1476 1478 1482 1485 1490 1492 1493 1494 1495 1497 1498 1500 1501 1504 1508 1512 1517 1514 1516 1516 1517 1516 1504 1505 1514 1511 1502 1503 1505 1508 1511 1513 1515 1518 1520 1521
1457 1460 1463 1466 1469 1471 1473 1476 1479 1479 1480 1483 1491 1493 1493 1495 1496 1496 1498 1500 1501 1503 1504 1507 1507 1508 1510 1517 1517 1498 1498 1499 1499 1499 1500 1502 1502 1506 1509 1512 1515 1517 1518 1519
1457 1461 1464 1467 1469 1471 1474 1476 1477 1479 1481 1483 1491 1492 1493 1494 1495 1497 1499 1500 1501 1503 1504 1505 1506 1507 1508 1511 1511 1494 1494 1495 1495 1496 1497 1501 1503 1505 1508 1512 1514 1515 1516 1516
1458 1461 1464 1467 1470 1473 1475 1476 1477 1479 1482 1483 1491 1494 1494 1495 1495 1498 1498 1499 1500 1502 1503 1505 1505 1505 1506 1505 1490 1490 1491 1492 1493 1494 1496 1497 1500 1503 1507 1511 1512 1513 1514 1514
1458 1462 1466 1469 1471 1473 1475 1477 1478 1480 1484 1483 1487 1493 1497 1494 1495 1497 1499 1499 1503 1504 1502 1503 1505 1504 1501 1489 1489 1489 1488 1489 1490 1494 1496 1498 1500 1503 1505 1509 1511 1512 1512 1512
1459 1464 1467 1469 1471 1473 1476 1479 1479 1480 1480 1482 1484 1487 1491 1493 1495 1498 1501 1501 1503 1505 1503 1502 1502 1494 1487 1487 1488 1488 1488 1489 1491 1493 1498 1501 1502 1506 1508 1509 1510 1510 1510 1510
1461 1464 1466 1469 1472 1475 1476 1477 1479 1482 1483 1483 1484 1485 1488 1492 1495 1497 1500 1501 1503 1502 1501 1502 1497 1492 1488 1486 1486 1487 1488 1491 1493 1495 1499 1501 1505 1508 1508 1508 1508 1507 1507 1506
1460 1462 1466 1472 1473 1474 1476 1479 1481 1481 1482 1482 1483 1485 1488 1490 1492 1494 1499 1500 1501 1498 1498 1499 1492 1491 1489 1489 1489 1491 1492 1493 1497 1499 1502 1504 1506 1507 1507 1507 1506 1504 1503 1502
1459 1463 1465 1468 1473 1474 1472 1472 1477 1479 1480 1481 1483 1486 1487 1489 1490 1493 1495 1495 1494 1495 1496 1494 1492 1490 1491 1492 1492 1495 1497 1499 1501 1503 1504 1505 1506 1506 1505 1504 1503 1501 1499 1498
1460 1463 1468 1471 1473 1475 1475 1476 1476 1478 1478 1480 1482 1484 1486 1488 1489 1490 1490 1492 1493 1492 1496 1499 1491 1492 1494 1495 1496 1497 1499 1501 1502 1504 1504 1504 1503 1502 1501 1500 1499 1498 1496 1494
1463 1466 1470 1473 1475 1476 1476 1477 1477 1478 1479 1481 1483 1485 1487 1489 1490 1490 1493 1493 1491 1491 1492 1493 1493 1494 1496 1497 1499 1500 1501 1502 1502 1502 1502 1501 1501 1499 1498 1497 1495 1494 1492 1490
1466 1470 1473 1474 1475 1477 1478 1478 1479 1480 1481 1483 1484 1486 1488 1490 1490 1491 1489 1490 1492 1497 1496 1495 1495 1497 1498 1499 1500 1501 1502 1502 1502 1500 1499 1499 1498 1496 1494 1493 1491 1489 1488 1486
1470 1473 1474 1474 1476 1477 1479 1479 1480 1481 1483 1484 1485 1488 1490 1490 1490 1490 1491 1495 1496 1497 1496 1496 1497 1499 1499 1500 1501 1502 1501 1500 1499 1498 1497 1495 1494 1492 1490 1487 1486 1484 1482 1479